| time (UTC) | temp F | wind direction | speed MPH | gust MPH | rain 1hr in | rain 24hr in | rain mn in | humidity % | barometer mb |
| 20260904140042 | 66 | 302 | 0.0 | 0.0 | 0.00 | 0.01 | 0.01 | 87 | 1010.3 |
| 20260904134559 | 64 | 250 | 0.0 | 0.0 | 0.00 | 0.01 | 0.01 | 86 | 1010.3 |
| 20260904133036 | 63 | 190 | 0.0 | 0.0 | 0.00 | 0.01 | 0.01 | 86 | 1010.3 |
| 20260904131532 | 62 | 190 | 0.0 | 0.0 | 0.00 | 0.01 | 0.01 | 86 | 1010.3 |
| 20260904130030 | 60 | 190 | 0.0 | 3.0 | 0.00 | 0.01 | 0.01 | 86 | 1010.5 |
| 20260904124523 | 60 | 304 | 0.0 | 0.0 | 0.00 | 0.02 | 0.01 | 87 | 1010.6 |
| 20260904123020 | 59 | 319 | 0.0 | 3.0 | 0.00 | 0.02 | 0.01 | 87 | 1010.6 |
| 20260904121518 | 57 | 38 | 0.0 | 3.0 | 0.00 | 0.02 | 0.01 | 87 | 1010.6 |
| 20260904120020 | 56 | 20 | 0.0 | 0.0 | 0.00 | 0.02 | 0.01 | 87 | 1010.4 |
| 20260904114514 | 55 | 21 | 0.0 | 0.0 | 0.00 | 0.02 | 0.01 | 87 | 1010.5 |
| 20260904113011 | 55 | 22 | 0.0 | 0.0 | 0.00 | 0.02 | 0.01 | 87 | 1010.4 |
| 20260904111508 | 55 | 22 | 0.0 | 0.0 | 0.01 | 0.02 | 0.01 | 87 | 1010.1 |
| 20260904110007 | 55 | 22 | 0.0 | 0.0 | 0.01 | 0.02 | 0.01 | 87 | 1010.0 |
| 20260904104507 | 54 | 22 | 0.0 | 0.0 | 0.01 | 0.02 | 0.01 | 87 | 1009.8 |
| 20260904103004 | 53 | 22 | 0.0 | 0.0 | 0.01 | 0.02 | 0.01 | 88 | 1009.8 |
| 20260904101504 | 53 | 23 | 0.0 | 0.0 | 0.00 | 0.01 | 0.00 | 88 | 1009.8 |
| 20260904100004 | 54 | 23 | 0.0 | 0.0 | 0.00 | 0.01 | 0.00 | 87 | 1009.7 |
| 20260904094503 | 54 | 23 | 0.0 | 0.0 | 0.00 | 0.01 | 0.00 | 87 | 1009.4 |
| 20260904093002 | 54 | 24 | 0.0 | 0.0 | 0.00 | 0.01 | 0.00 | 88 | 1009.4 |
| 20260904091502 | 54 | 24 | 0.0 | 0.0 | 0.00 | 0.01 | 0.00 | 88 | 1009.4 |
| 20260904090107 | 54 | 24 | 0.0 | 0.0 | 0.00 | 0.01 | 0.00 | 88 | 1009.4 |
| 20260904084600 | 54 | 24 | 0.0 | 0.0 | 0.00 | 0.01 | 0.00 | 88 | 1009.3 |
| 20260904083144 | 54 | 24 | 0.0 | 0.0 | 0.00 | 0.01 | 0.00 | 88 | 1009.4 |
| 20260904081601 | 54 | 24 | 0.0 | 0.0 | 0.00 | 0.01 | 0.00 | 88 | 1009.6 |
| 20260904080054 | 55 | 24 | 0.0 | 0.0 | 0.00 | 0.01 | 0.00 | 88 | 1009.5 |
| 20260904074554 | 55 | 24 | 0.0 | 0.0 | 0.00 | 0.01 | 0.00 | 88 | 1009.4 |
| 20260904073058 | 55 | 24 | 0.0 | 0.0 | 0.00 | 0.01 | 0.00 | 88 | 1009.6 |
| 20260904071616 | 55 | 24 | 0.0 | 0.0 | 0.00 | 0.01 | 0.00 | 88 | 1009.7 |
| 20260904070112 | 56 | 24 | 0.0 | 0.0 | 0.00 | 0.01 | 0.00 | 88 | 1009.6 |
| 20260904064549 | 56 | 24 | 0.0 | 0.0 | 0.00 | 0.01 | 0.00 | 88 | 1009.8 |
| 20260904063100 | 56 | 24 | 0.0 | 0.0 | 0.00 | 0.01 | 0.00 | 88 | 1009.6 |
| 20260904061544 | 57 | 24 | 0.0 | 0.0 | 0.00 | 0.01 | 0.00 | 87 | 1009.8 |
| 20260904060042 | 57 | 24 | 0.0 | 0.0 | 0.00 | 0.01 | 0.00 | 88 | 1010.1 |
| 20260904054547 | 57 | 24 | 0.0 | 0.0 | 0.00 | 0.01 | 0.00 | 87 | 1010.2 |
| 20260904053051 | 58 | 24 | 0.0 | 0.0 | 0.00 | 0.01 | 0.00 | 88 | 1010.5 |
| 20260904051541 | 58 | 24 | 0.0 | 0.0 | 0.00 | 0.01 | 0.00 | 88 | 1010.7 |
| 20260904050039 | 58 | 24 | 0.0 | 0.0 | 0.00 | 0.01 | 0.00 | 87 | 1010.7 |
| 20260904044534 | 58 | 24 | 0.0 | 0.0 | 0.00 | 0.01 | 0.00 | 88 | 1010.8 |
| 20260904043036 | 59 | 24 | 0.0 | 0.0 | 0.00 | 0.01 | 0.00 | 88 | 1010.7 |
| 20260904041531 | 59 | 24 | 0.0 | 0.0 | 0.00 | 0.01 | 0.00 | 87 | 1010.7 |
| 20260904040029 | 59 | 24 | 0.0 | 0.0 | 0.00 | 0.01 | 0.00 | 87 | 1010.7 |
| 20260904034528 | 60 | 24 | 0.0 | 0.0 | 0.00 | 0.01 | 0.01 | 87 | 1010.7 |
| 20260904033029 | 60 | 24 | 0.0 | 0.0 | 0.00 | 0.01 | 0.01 | 87 | 1010.9 |
| 20260904031535 | 61 | 24 | 0.0 | 0.0 | 0.00 | 0.01 | 0.01 | 87 | 1010.9 |
| 20260904030027 | 61 | 24 | 0.0 | 0.0 | 0.00 | 0.01 | 0.01 | 87 | 1011.0 |
| 20260904024526 | 62 | 24 | 0.0 | 0.0 | 0.00 | 0.01 | 0.01 | 87 | 1011.2 |
| 20260904023026 | 62 | 24 | 0.0 | 0.0 | 0.00 | 0.01 | 0.01 | 87 | 1011.2 |
| 20260904021529 | 63 | 24 | 0.0 | 0.0 | 0.00 | 0.01 | 0.01 | 87 | 1011.3 |
| 20260904020026 | 63 | 24 | 0.0 | 0.0 | 0.00 | 0.01 | 0.01 | 87 | 1011.1 |
| 20260904014524 | 63 | 24 | 0.0 | 0.0 | 0.00 | 0.01 | 0.01 | 87 | 1011.2 |
| 20260904013124 | 64 | 24 | 0.0 | 0.0 | 0.00 | 0.01 | 0.01 | 87 | 1011.1 |
| 20260904011525 | 64 | 25 | 0.0 | 0.0 | 0.00 | 0.01 | 0.01 | 87 | 1011.2 |
| 20260904010024 | 64 | 25 | 0.0 | 0.0 | 0.00 | 0.01 | 0.01 | 87 | 1011.0 |
| 20260904004522 | 65 | 25 | 0.0 | 0.0 | 0.00 | 0.01 | 0.01 | 87 | 1011.0 |
| 20260904003022 | 65 | 25 | 0.0 | 0.0 | 0.00 | 0.01 | 0.01 | 87 | 1010.9 |
| 20260904001522 | 66 | 25 | 0.0 | 0.0 | 0.00 | 0.01 | 0.01 | 87 | 1010.7 |
| 20260904000023 | 67 | 25 | 0.0 | 0.0 | 0.00 | 0.01 | 0.01 | 87 | 1010.3 |
| 20260903234521 | 68 | 40 | 0.0 | 0.0 | 0.00 | 0.01 | 0.01 | 86 | 1010.2 |
| 20260903233022 | 69 | 40 | 0.0 | 0.0 | 0.00 | 0.01 | 0.01 | 85 | 1010.1 |
| 20260903231523 | 70 | 40 | 0.0 | 0.0 | 0.00 | 0.01 | 0.01 | 85 | 1010.1 |
| 20260903230033 | 72 | 13 | 0.0 | 2.0 | 0.00 | 0.01 | 0.01 | 84 | 1010.3 |
| 20260903224521 | 73 | 206 | 0.0 | 0.0 | 0.00 | 0.01 | 0.01 | 83 | 1010.3 |
| 20260903223023 | 73 | 206 | 0.0 | 0.0 | 0.00 | 0.01 | 0.01 | 81 | 1010.3 |
| 20260903221517 | 74 | 244 | 0.0 | 0.0 | 0.00 | 0.01 | 0.01 | 80 | 1010.1 |
| 20260903220024 | 74 | 225 | 0.0 | 0.0 | 0.00 | 0.01 | 0.01 | 80 | 1010.4 |
| 20260903214526 | 74 | 210 | 0.0 | 3.0 | 0.00 | 0.01 | 0.01 | 80 | 1010.4 |
| 20260903213014 | 75 | 198 | 2.0 | 6.0 | 0.00 | 0.01 | 0.01 | 80 | 1010.7 |
| 20260903211526 | 75 | 206 | 1.0 | 7.0 | 0.00 | 0.01 | 0.01 | 78 | 1010.6 |
| 20260903210017 | 75 | 212 | 2.0 | 6.0 | 0.00 | 0.01 | 0.01 | 78 | 1010.4 |
| 20260903204513 | 75 | 244 | 0.0 | 6.0 | 0.00 | 0.01 | 0.01 | 79 | 1010.3 |
| 20260903203012 | 76 | 259 | 0.0 | 8.0 | 0.00 | 0.01 | 0.01 | 79 | 1010.4 |
| 20260903201517 | 75 | 229 | 3.0 | 8.0 | 0.00 | 0.01 | 0.01 | 80 | 1010.4 |
| 20260903200009 | 75 | 218 | 0.0 | 7.0 | 0.00 | 0.01 | 0.01 | 82 | 1010.7 |
| 20260903194507 | 75 | 189 | 0.0 | 8.0 | 0.00 | 0.01 | 0.01 | 81 | 1010.7 |
| 20260903193006 | 75 | 260 | 0.0 | 8.0 | 0.00 | 0.01 | 0.01 | 80 | 1010.9 |
| 20260903191503 | 75 | 192 | 2.0 | 13.0 | 0.00 | 0.01 | 0.01 | 83 | 1011.0 |
| 20260903190059 | 72 | 188 | 2.0 | 10.0 | 0.00 | 0.01 | 0.01 | 86 | 1011.0 |
| 20260903184555 | 70 | 198 | 2.0 | 13.0 | 0.00 | 0.01 | 0.01 | 87 | 1011.2 |
| 20260903183051 | 67 | 144 | 0.0 | 0.0 | 0.00 | 0.01 | 0.01 | 86 | 1011.2 |
| 20260903181548 | 66 | 145 | 0.0 | 0.0 | 0.00 | 0.01 | 0.01 | 86 | 1011.5 |
| 20260903180047 | 66 | 145 | 0.0 | 0.0 | 0.00 | 0.01 | 0.01 | 86 | 1011.7 |
| 20260903174544 | 66 | 146 | 0.0 | 0.0 | 0.00 | 0.01 | 0.01 | 86 | 1011.7 |
| 20260903173044 | 65 | 148 | 0.0 | 0.0 | 0.00 | 0.01 | 0.01 | 86 | 1011.7 |
| 20260903171540 | 64 | 147 | 0.0 | 0.0 | 0.00 | 0.01 | 0.01 | 86 | 1012.0 |
| 20260903170051 | 64 | 147 | 0.0 | 0.0 | 0.00 | 0.01 | 0.01 | 86 | 1012.0 |
| 20260903164535 | 64 | 148 | 0.0 | 0.0 | 0.00 | 0.01 | 0.01 | 86 | 1012.1 |
| 20260903163034 | 64 | 148 | 0.0 | 0.0 | 0.00 | 0.01 | 0.01 | 86 | 1012.3 |
| 20260903161535 | 63 | 148 | 0.0 | 0.0 | 0.00 | 0.01 | 0.01 | 86 | 1012.3 |
| 20260903160032 | 63 | 148 | 0.0 | 0.0 | 0.00 | 0.01 | 0.01 | 87 | 1012.4 |
| 20260903154535 | 63 | 148 | 0.0 | 0.0 | 0.00 | 0.01 | 0.01 | 87 | 1012.4 |
| 20260903153026 | 62 | 148 | 0.0 | 0.0 | 0.00 | 0.01 | 0.01 | 87 | 1012.5 |
| 20260903151524 | 61 | 148 | 0.0 | 0.0 | 0.00 | 0.01 | 0.01 | 87 | 1012.6 |
| 20260903150023 | 60 | 148 | 0.0 | 0.0 | 0.00 | 0.01 | 0.01 | 87 | 1012.8 |
| 20260903144523 | 60 | 148 | 0.0 | 0.0 | 0.00 | 0.01 | 0.01 | 87 | 1012.8 |
| 20260903143020 | 60 | 148 | 0.0 | 0.0 | 0.00 | 0.01 | 0.01 | 87 | 1012.7 |
| 20260903141531 | 59 | 148 | 0.0 | 0.0 | 0.00 | 0.01 | 0.01 | 87 | 1012.8 |